Location: Unspecified
(0.0000°N, 0.0000°E)
Time: 13:49:59
(UTC+00:00)

LightSail 2 - Pass Details

Date: 28 March 2020
Orbit: 693 x 726 km, 24.0° (Epoch: 02 April)

Event Time Altitude Azimuth Distance (km) Brightness Sun altitude
Exits shadow 04:50:47 33° 240° (WSW) 1,165 5.8 -18.5°
Maximum altitude 04:53:06 84° 154° (SSE) 700 5.1 -18.0°
Drops below altitude 10° 04:58:11 10° 66° (ENE) 2,150 8.7 -16.7°
Sets 05:00:37 0° 66° (ENE) 3,072 9.8 -16.1°
